Location: Unspecified
(56.5167°N, 0.0000°E)
Time: 17:45:54
(UTC+01:00)

ISS - Visible Passes

Search period start: 13 December 2017 00:00
Search period end: 23 December 2017 00:00
Orbit: 402 x 407 km, 51.6° (Epoch: 13 December)

Date Brightness Start Highest point End Pass type
(mag) Time Alt. Az. Time Alt. Az. Time Alt. Az.
13 Dec -1.5 18:01:58 10° WSW 18:04:40 23° SSW 18:07:20 10° SE visible
14 Dec -1.7 17:09:42 10° WSW 17:12:35 28° SSW 17:15:28 10° SE visible
14 Dec -0.7 18:47:02 10° WSW 18:48:20 12° SW 18:49:37 10° S visible
15 Dec -0.8 17:54:11 10° WSW 17:56:20 16° SSW 17:58:29 10° SSE visible
17 Dec -0.2 17:47:16 10° SW 17:47:52 10° SW 17:48:28 10° SSW visible
